Погода в Кудымкаре

Россия / Пермский край     59°00′52″N   54°39′51″E
темп.,
°C
ветер,
м/с
пор.,
м/с
влажн.,
%
обл.,
%
осадки,
мм/ч
давл.,
гПа
погр.,
м
16 сентября, чт
чт1623:00+6сз2895100 8.7 998765
02:00+5зсз4895100 0.8 999605
05:00+5сз51293100 0.9 999742
08:00+3з51094100 0.1 1000568
11:00+4з51097100 0.4 1000733
14:00+5сз5897100 0.6 10001010
17:00+3сз51097100 1.8 1002886
20:00+4ссз51198100 0.4 10031102
17 сентября, пт
пт1723:00+5ссз61197100 0.6 10031131
02:00+6ссз51094100 0.1 1005870
05:00+5ссз51095100 0.1 1006704
08:00+4ссз4994100 0.0 1007676
11:00+5ссз4787100 0.1 1008758
14:00+6ссз4684100 0.1 1009690
17:00+6ссз3779100 0.3 1010583
20:00+5ссз3879100 0.1 1010299
18 сентября, сб
сб1823:00+4ссз4890100 0.2 1011467
02:00+2с4994100 0.0 1012553
05:00+2ссз488893 0.1 1013546
08:00+2ссз4990100 0.1 1013750
11:00+4ссз5980100 0.4 1013998
14:00+5сз6107299 0.4 10131350
17:00+5сз61071100 0.7 10131328
20:00+3сз61289100 0.1 1014972
19 сентября, вс
вс1923:00+3сз61296100 0.3 10131070
02:00+2сз61195100 0.2 10131065
05:00+2сз61193100 0.4 10141019
08:00+2сз61289100 0.2 10151167
11:00+4ссз61175100 0.3 10161237
14:00+6ссз61059100 0.1 10171338
17:00+6ссз51058100 0.1 10181374
20:00+3сз3774100 0.0 1020188
20 сентября, пн
пн2023:00+2ссз3982100 0.0 1022417
02:00+1сз388894 0.0 1023260
05:00−1сз3894100 0.0 1025206
08:00−2сз27955 0.0 1027201
11:00+4с346937 0.0 1028744
14:00+7с345328 0.0 10281290
17:00+7ссв345560 0.0 10291169
20:000св36905 0.0 1031127